Theta_e
354 352 349 343 342 343 343 344 344 345 345 343 342 342 341 341 341 341 339 341 342 343 341 339 338 337 335 333 333 334 338 336
352 353 352 353 352 341 341 341 342 342 342 340 338 339 340 340 340 340 342 341 340 340 339 338 337 335 332 332 332 333 337 336
351 351 350 349 350 347 342 342 341 340 342 339 337 345 344 342 338 339 340 339 339 339 337 335 333 332 331 331 331 336 335 334
348 349 349 349 346 349 351 350 348 346 346 346 344 344 343 339 338 336 338 337 337 335 334 333 333 337 335 331 336 335 335 332
346 348 349 348 346 344 345 346 345 346 343 346 346 344 342 340 340 338 339 336 340 335 332 333 333 339 337 337 336 336 333 331
344 346 347 348 345 344 343 339 341 342 342 340 340 340 338 338 337 335 336 336 337 334 331 331 336 338 337 335 335 333 332 330
343 344 346 345 344 342 340 338 338 340 339 337 338 338 336 333 334 336 338 340 334 332 332 331 337 336 335 334 333 332 332 330
344 342 344 344 342 343 341 341 339 337 337 336 336 337 336 335 335 335 337 339 336 331 330 330 336 336 333 333 332 332 331 331
341 342 342 342 342 342 340 338 341 337 335 335 337 335 336 334 333 333 337 336 328 327 326 327 328 333 331 331 331 331 329 328
340 339 340 338 341 340 338 337 338 338 336 334 335 336 336 335 334 332 333 331 327 324 324 324 326 330 329 330 330 329 329 328
337 340 338 335 336 339 339 336 334 336 336 335 335 337 336 335 332 330 330 324 324 323 322 322 324 328 327 327 328 327 327 326
336 337 338 333 333 338 337 333 332 333 332 335 337 334 335 335 333 326 323 320 319 321 320 321 322 327 325 325 326 326 326 326
334 335 337 331 331 331 330 327 328 333 332 333 334 335 333 332 330 325 322 320 319 319 318 318 319 323 321 320 322 324 324 324
332 333 336 334 335 334 333 330 329 330 330 333 335 334 333 331 328 327 323 321 319 318 318 317 318 322 318 317 311 315 320 322
329 332 335 334 335 334 332 331 328 328 328 326 331 334 332 329 328 325 323 321 320 320 320 320 317 319 323 318 311 310 314 320
329 331 334 334 335 332 329 326 324 327 327 325 326 331 330 329 327 326 324 321 319 321 322 320 321 317 322 322 323 320 312 312
329 330 332 333 334 332 329 329 329 329 327 325 326 329 331 329 326 327 325 322 321 319 322 322 321 320 320 322 322 321 321 316
329 329 331 332 331 331 330 329 328 326 325 325 325 324 327 327 329 325 323 323 321 319 318 321 321 323 325 325 320 318 318 316
328 329 329 329 327 329 330 328 329 327 325 325 324 321 323 325 327 327 323 322 322 318 317 317 319 318 322 321 320 317 316 317
328 328 327 325 324 327 329 328 329 327 325 325 325 323 323 324 325 326 325 323 320 319 317 317 318 318 320 318 317 320 317 316
Wind_Speed
10 13 12 8 9 10 10 10 10 10 10 8 10 18 16 16 15 15 12 14 13 18 17 17 13 11 13 12 8 6 8 7
11 11 12 12 11 8 9 10 10 10 8 10 12 14 13 11 14 15 16 16 17 17 17 19 19 12 11 12 9 4 9 10
11 11 11 11 10 10 9 10 11 8 8 10 12 12 13 14 13 11 14 13 14 17 14 16 11 14 13 13 13 8 8 5
12 11 11 11 8 9 12 11 11 10 11 12 11 12 12 12 12 9 10 11 11 15 16 17 14 11 10 12 9 7 6 6
12 12 11 11 10 6 4 3 5 7 9 10 11 9 8 8 8 8 9 7 8 9 10 8 12 11 13 11 9 9 5 5
13 12 12 12 7 7 7 5 5 7 8 8 7 6 8 7 6 8 6 7 10 8 8 12 17 17 16 14 10 8 6 6
16 14 13 12 11 8 8 6 6 9 9 9 6 9 8 7 7 5 7 6 7 8 9 10 13 14 14 12 11 8 8 6
16 16 14 14 12 11 9 9 8 8 9 9 10 8 7 6 6 8 7 7 8 9 9 8 11 12 13 12 11 9 9 10
17 16 16 15 14 11 9 8 8 8 8 10 12 8 9 7 7 8 10 8 8 8 10 7 5 11 14 12 10 10 9 9
17 15 16 15 13 11 9 8 8 9 8 8 11 12 12 10 8 7 8 7 10 8 10 9 8 10 11 11 9 9 9 9
18 18 18 17 13 11 10 8 8 7 8 8 11 13 12 10 7 6 9 7 9 11 9 10 6 9 10 10 9 8 10 9
16 16 18 16 10 11 9 7 7 8 7 9 12 10 12 10 8 6 5 7 6 8 13 8 6 10 10 9 9 8 8 8
18 18 19 13 11 11 9 8 7 8 7 10 11 10 11 9 7 8 7 8 9 9 9 13 5 5 8 6 3 5 8 6
17 20 21 18 14 13 9 10 7 9 7 9 11 12 12 10 10 10 9 7 11 12 8 8 4 6 7 9 4 2 5 7
18 20 20 18 18 13 9 9 5 6 9 7 8 12 13 11 12 9 8 8 9 10 13 13 8 7 10 6 5 5 8 8
18 19 20 19 20 17 18 13 11 10 10 8 8 10 9 10 10 11 12 8 9 12 12 11 10 12 10 11 11 9 10 7
15 18 21 21 21 18 16 14 9 8 8 11 12 12 14 12 10 15 12 10 12 12 13 14 11 11 12 11 9 8 12 9
15 19 22 22 21 21 19 16 12 10 11 10 9 7 9 12 13 10 12 11 13 12 13 15 12 12 12 13 11 9 8 6
16 20 22 19 22 22 19 17 14 13 11 9 10 8 8 11 12 12 10 11 11 11 11 13 12 12 12 10 9 7 6 2
19 21 21 20 21 21 17 17 10 9 10 8 7 6 6 7 9 11 14 14 10 10 9 10 12 9 12 11 8 9 7 6
Wind_Direction
165 176 180 182 174 170 174 171 178 187 191 200 167 156 167 165 173 180 175 182 185 166 156 144 148 149 138 142 151 197 159 137
172 174 181 188 189 183 178 172 187 196 178 153 152 154 162 173 176 183 183 184 177 173 161 155 146 150 150 141 145 204 166 155
179 181 181 194 196 180 183 180 184 190 173 163 158 183 181 177 189 180 167 174 180 171 167 144 141 151 154 146 162 182 157 153
185 189 188 188 194 184 201 200 197 196 199 191 198 202 194 195 184 178 169 188 185 185 168 140 158 163 162 164 191 161 181 155
200 189 192 196 190 181 180 184 182 193 186 199 199 199 191 200 188 188 190 201 202 187 136 169 188 182 173 186 177 171 165 119
215 199 190 198 189 194 189 170 185 183 175 163 176 185 179 183 192 191 195 203 209 179 167 183 194 179 172 185 164 185 162 126
207 196 198 193 193 193 183 186 197 190 177 173 194 196 193 185 199 214 221 218 170 161 166 183 185 175 174 171 170 170 161 126
200 197 205 196 199 197 191 183 200 184 183 184 182 205 187 197 207 220 222 218 174 169 163 174 182 178 167 169 171 165 175 146
203 196 197 202 198 195 197 191 180 189 172 183 192 199 207 198 216 219 229 195 156 174 149 155 192 175 170 168 169 167 173 174
199 191 197 198 198 195 195 190 197 191 179 184 193 203 214 212 220 221 219 197 167 149 147 162 183 182 170 165 169 165 163 175
200 198 195 191 192 198 193 175 193 205 192 192 192 208 211 214 203 207 199 164 184 158 159 157 166 169 168 166 161 166 167 171
201 200 193 187 176 198 190 177 194 200 191 199 195 211 207 207 184 137 131 152 148 147 154 156 153 166 163 162 169 162 171 171
205 198 192 183 180 188 186 180 181 200 192 197 197 199 202 186 161 148 143 156 141 130 149 138 137 183 134 115 123 159 173 175
201 204 196 189 185 187 186 183 187 198 191 197 200 197 192 187 168 164 155 153 151 151 151 124 127 191 148 143 148 138 212 202
206 204 199 197 190 181 174 172 164 189 189 180 215 201 186 180 180 168 161 161 164 170 165 163 159 186 175 171 153 178 161 203
209 202 196 198 189 179 181 181 187 202 204 182 192 195 195 185 178 180 170 164 174 182 177 177 171 183 194 216 190 155 191 170
210 198 195 193 188 186 185 190 188 185 188 186 204 202 198 195 185 180 180 182 178 181 182 188 183 185 190 199 204 179 209 188
202 196 194 189 190 189 190 184 175 179 190 190 190 196 210 208 193 187 182 183 178 187 185 187 190 194 195 201 200 185 205 205
193 195 190 184 188 189 185 175 183 186 185 194 184 189 199 211 208 187 179 182 185 176 184 188 190 197 199 199 199 201 153 153
191 193 187 184 185 187 177 177 182 185 195 186 184 201 207 208 220 201 177 178 176 179 183 192 193 204 198 196 197 200 171 157